SCS-01 D (63985 NORAD) Tracking and Keplerian Element Data

This shows tracking and keplerian element data for the satellite.

Feedback or suggestion? Click here.




ElementValue
Catalog63985
NameSCS-01 D
Epoch Orbit3346
Epoch Day354.25641588
Epoch Year2025
RAAN66.3616
Inclination97.3885
Eccentricity0.0009385
Argument of Perigee198.4256
Mean Anonmoly161.6645
Mean Motion15.27777834
Decay Rate0.00018806
L11 63985U 25100D 25354.25641588 .00018806 00000+0 69397-3 0 9996
L22 63985 97.3885 66.3616 0009385 198.4256 161.6645 15.27777834 33467



Live tracking and technical data element details for SCS-01 D (NORAD 63985). SCS-01 D can be tracked NOW for your location showing map with azimuth and elevation plus other details from your city location.







IsCatalogInMostPopularTable: catalog: 63985, numindb: 7
Update: records affected: 1



GetName: 63985 SCS-01 D

Hit Count: updated at: Sat, 11 Apr 2026 20:09:01 GMT